Time,TemperatureF,DewpointF,PressureIn,WindDirection,WindDirectionDegrees,WindSpeedMPH,WindSpeedGustMPH,Humidity,HourlyPrecipIn,Conditions,Clouds,dailyrainin,SoftwareType,DateUTC
2013-05-04 00:03:00,55.6,11.0,29.89,SSW,208,1.0,5.0,17,0.00,,,0.00,weatherlink.com 1.10,2013-05-04 06:03:00,
2013-05-04 00:18:00,54.7,12.0,29.89,East,89,1.0,3.0,18,0.00,,,0.00,weatherlink.com 1.10,2013-05-04 06:18:00,
2013-05-04 00:34:00,54.1,11.0,29.89,SE,130,0.0,4.0,18,0.00,,,0.00,weatherlink.com 1.10,2013-05-04 06:34:00,
2013-05-04 00:49:00,53.6,11.0,29.88,SE,135,0.0,2.0,18,0.00,,,0.00,weatherlink.com 1.10,2013-05-04 06:49:00,
2013-05-04 01:04:00,53.2,12.0,29.88,ESE,112,1.0,3.0,19,0.00,,,0.00,weatherlink.com 1.10,2013-05-04 07:04:00,
2013-05-04 01:19:00,53.0,14.0,29.88,SSE,159,0.0,4.0,21,0.00,,,0.00,weatherlink.com 1.10,2013-05-04 07:19:00,
2013-05-04 01:34:00,52.6,17.0,29.87,SSE,159,0.0,0.0,24,0.00,,,0.00,weatherlink.com 1.10,2013-05-04 07:34:00,
2013-05-04 01:49:00,52.7,18.0,29.86,SSE,160,0.0,1.0,25,0.00,,,0.00,weatherlink.com 1.10,2013-05-04 07:49:00,
2013-05-04 02:04:00,50.9,12.0,29.86,SSE,159,0.0,1.0,21,0.00,,,0.00,weatherlink.com 1.10,2013-05-04 08:04:00,
2013-05-04 02:19:00,51.3,13.0,29.85,SSE,159,0.0,0.0,22,0.00,,,0.00,weatherlink.com 1.10,2013-05-04 08:19:00,
2013-05-04 02:34:00,50.4,17.0,29.85,SSE,159,0.0,1.0,26,0.00,,,0.00,weatherlink.com 1.10,2013-05-04 08:34:00,
2013-05-04 02:49:00,50.2,17.0,29.85,SSE,159,0.0,1.0,27,0.00,,,0.00,weatherlink.com 1.10,2013-05-04 08:49:00,
2013-05-04 03:04:00,50.3,15.0,29.85,SSE,160,0.0,0.0,24,0.00,,,0.00,weatherlink.com 1.10,2013-05-04 09:04:00,
2013-05-04 03:19:00,50.1,16.0,29.85,SSE,160,0.0,1.0,26,0.00,,,0.00,weatherlink.com 1.10,2013-05-04 09:19:00,
2013-05-04 03:34:00,49.8,14.0,29.85,SW,231,0.0,3.0,24,0.00,,,0.00,weatherlink.com 1.10,2013-05-04 09:34:00,
2013-05-04 03:49:00,49.8,16.0,29.85,SW,231,0.0,0.0,26,0.00,,,0.00,weatherlink.com 1.10,2013-05-04 09:49:00,
2013-05-04 04:04:00,49.6,18.0,29.85,ESE,121,0.0,1.0,29,0.00,,,0.00,weatherlink.com 1.10,2013-05-04 10:04:00,
2013-05-04 04:19:00,48.5,14.0,29.85,ESE,121,1.0,1.0,25,0.00,,,0.00,weatherlink.com 1.10,2013-05-04 10:19:00,
2013-05-04 04:34:00,48.8,20.0,29.84,ESE,121,0.0,0.0,32,0.00,,,0.00,weatherlink.com 1.10,2013-05-04 10:34:00,
2013-05-04 04:49:00,49.1,19.0,29.84,ESE,121,0.0,0.0,30,0.00,,,0.00,weatherlink.com 1.10,2013-05-04 10:49:00,
2013-05-04 05:04:00,48.5,14.0,29.84,ESE,121,0.0,1.0,25,0.00,,,0.00,weatherlink.com 1.10,2013-05-04 11:04:00,
2013-05-04 05:19:00,45.3,18.0,29.84,ESE,118,1.0,1.0,34,0.00,,,0.00,weatherlink.com 1.10,2013-05-04 11:19:00,
2013-05-04 05:34:00,43.3,18.0,29.85,North,352,1.0,2.0,36,0.00,,,0.00,weatherlink.com 1.10,2013-05-04 11:34:00,
2013-05-04 05:49:00,42.9,15.0,29.85,North,357,1.0,2.0,33,0.00,,,0.00,weatherlink.com 1.10,2013-05-04 11:49:00,
2013-05-04 06:04:00,42.8,13.0,29.86,North,356,0.0,1.0,30,0.00,,,0.00,weatherlink.com 1.10,2013-05-04 12:04:00,
2013-05-04 06:19:00,43.0,14.0,29.86,North,356,0.0,1.0,31,0.00,,,0.00,weatherlink.com 1.10,2013-05-04 12:19:00,
2013-05-04 06:34:00,42.8,15.0,29.86,North,356,1.0,1.0,33,0.00,,,0.00,weatherlink.com 1.10,2013-05-04 12:34:00,
2013-05-04 06:49:00,42.1,15.0,29.86,North,357,0.0,0.0,34,0.00,,,0.00,weatherlink.com 1.10,2013-05-04 12:49:00,
2013-05-04 07:04:00,42.3,14.0,29.87,North,358,0.0,1.0,32,0.00,,,0.00,weatherlink.com 1.10,2013-05-04 13:04:00,
2013-05-04 07:19:00,43.1,13.0,29.87,North,359,3.0,3.0,30,0.00,,,0.00,weatherlink.com 1.10,2013-05-04 13:19:00,
2013-05-04 07:34:00,44.7,13.0,29.87,NE,40,0.0,3.0,28,0.00,,,0.00,weatherlink.com 1.10,2013-05-04 13:34:00,
2013-05-04 07:49:00,46.8,13.0,29.87,NNW,338,0.0,3.0,26,0.00,,,0.00,weatherlink.com 1.10,2013-05-04 13:49:00,
2013-05-04 08:04:00,48.4,13.0,29.87,North,351,1.0,3.0,24,0.00,,,0.00,weatherlink.com 1.10,2013-05-04 14:04:00,
2013-05-04 08:19:00,49.9,14.0,29.87,North,352,1.0,3.0,24,0.00,,,0.00,weatherlink.com 1.10,2013-05-04 14:19:00,
2013-05-04 08:34:00,51.2,12.0,29.87,North,358,2.0,5.0,21,0.00,,,0.00,weatherlink.com 1.10,2013-05-04 14:34:00,
2013-05-04 08:49:00,52.9,15.0,29.87,North,359,4.0,5.0,22,0.00,,,0.00,weatherlink.com 1.10,2013-05-04 14:49:00,
2013-05-04 09:04:00,54.7,13.0,29.87,NW,305,0.0,4.0,19,0.00,,,0.00,weatherlink.com 1.10,2013-05-04 15:04:00,
2013-05-04 09:19:00,58.4,14.0,29.86,North,8,1.0,2.0,17,0.00,,,0.00,weatherlink.com 1.10,2013-05-04 15:19:00,
2013-05-04 09:35:00,59.7,15.0,29.86,NNW,329,1.0,2.0,17,0.00,,,0.00,weatherlink.com 1.10,2013-05-04 15:35:00,
2013-05-04 09:50:00,61.8,15.0,29.86,SW,232,1.0,3.0,16,0.00,,,0.00,weatherlink.com 1.10,2013-05-04 15:50:00,
2013-05-04 10:05:00,63.7,13.0,29.86,SSE,148,2.0,3.0,14,0.00,,,0.00,weatherlink.com 1.10,2013-05-04 16:05:00,
2013-05-04 10:20:00,65.0,13.0,29.86,SSW,205,1.0,4.0,13,0.00,,,0.00,weatherlink.com 1.10,2013-05-04 16:20:00,
2013-05-04 10:35:00,65.9,15.0,29.85,WSW,256,1.0,7.0,14,0.00,,,0.00,weatherlink.com 1.10,2013-05-04 16:35:00,
2013-05-04 10:50:00,66.7,12.0,29.85,SW,231,3.0,8.0,12,0.00,,,0.00,weatherlink.com 1.10,2013-05-04 16:50:00,
2013-05-04 11:05:00,67.2,13.0,29.84,ENE,58,2.0,6.0,12,0.00,,,0.00,weatherlink.com 1.10,2013-05-04 17:05:00,
2013-05-04 11:20:00,67.7,13.0,29.83,WSW,256,4.0,5.0,12,0.00,,,0.00,weatherlink.com 1.10,2013-05-04 17:20:00,
2013-05-04 11:35:00,68.4,12.0,29.83,SSW,195,3.0,7.0,11,0.00,,,0.00,weatherlink.com 1.10,2013-05-04 17:35:00,
2013-05-04 11:50:00,70.1,11.0,29.82,West,264,4.0,9.0,10,0.00,,,0.00,weatherlink.com 1.10,2013-05-04 17:50:00,
2013-05-04 12:05:00,71.7,10.0,29.82,SW,228,6.0,6.0,9,0.00,,,0.00,weatherlink.com 1.10,2013-05-04 18:05:00,
2013-05-04 12:20:00,71.4,12.0,29.81,WSW,249,2.0,5.0,10,0.00,,,0.00,weatherlink.com 1.10,2013-05-04 18:20:00,
2013-05-04 12:35:00,72.7,10.0,29.80,SW,222,4.0,6.0,9,0.00,,,0.00,weatherlink.com 1.10,2013-05-04 18:35:00,
2013-05-04 12:50:00,72.4,8.0,29.79,SE,125,3.0,10.0,8,0.00,,,0.00,weatherlink.com 1.10,2013-05-04 18:50:00,
2013-05-04 13:05:00,73.8,9.0,29.78,ENE,58,2.0,5.0,8,0.00,,,0.00,weatherlink.com 1.10,2013-05-04 19:05:00,
2013-05-04 13:20:00,73.7,11.0,29.77,South,169,1.0,6.0,9,0.00,,,0.00,weatherlink.com 1.10,2013-05-04 19:20:00,
2013-05-04 13:35:00,74.3,6.0,29.76,WSW,245,3.0,9.0,7,0.00,,,0.00,weatherlink.com 1.10,2013-05-04 19:35:00,
2013-05-04 13:50:00,75.4,7.0,29.76,SSW,204,3.0,6.0,7,0.00,,,0.00,weatherlink.com 1.10,2013-05-04 19:50:00,
2013-05-04 14:05:00,76.2,8.0,29.75,WSW,239,6.0,6.0,7,0.00,,,0.00,weatherlink.com 1.10,2013-05-04 20:05:00,
2013-05-04 14:20:00,77.1,8.0,29.74,SE,141,1.0,8.0,7,0.00,,,0.00,weatherlink.com 1.10,2013-05-04 20:20:00,
2013-05-04 14:36:00,77.7,9.0,29.74,SE,142,3.0,6.0,7,0.00,,,0.00,weatherlink.com 1.10,2013-05-04 20:36:00,
2013-05-04 14:51:00,76.9,5.0,29.73,East,89,1.0,7.0,6,0.00,,,0.00,weatherlink.com 1.10,2013-05-04 20:51:00,
2013-05-04 15:06:00,78.3,6.0,29.72,WSW,247,2.0,8.0,6,0.00,,,0.00,weatherlink.com 1.10,2013-05-04 21:06:00,
2013-05-04 15:21:00,78.0,5.0,29.71,South,180,2.0,8.0,6,0.00,,,0.00,weatherlink.com 1.10,2013-05-04 21:21:00,
2013-05-04 15:36:00,77.5,9.0,29.70,NE,56,2.0,7.0,7,0.00,,,0.00,weatherlink.com 1.10,2013-05-04 21:36:00,
2013-05-04 15:51:00,79.1,6.0,29.69,SW,235,3.0,5.0,6,0.00,,,0.00,weatherlink.com 1.10,2013-05-04 21:51:00,
2013-05-04 16:06:00,80.7,7.0,29.68,SSE,162,2.0,5.0,6,0.00,,,0.00,weatherlink.com 1.10,2013-05-04 22:06:00,
2013-05-04 16:21:00,77.3,5.0,29.67,SSE,149,3.0,8.0,6,0.00,,,0.00,weatherlink.com 1.10,2013-05-04 22:21:00,
2013-05-04 16:36:00,78.0,5.0,29.66,ESE,113,1.0,9.0,6,0.00,,,0.00,weatherlink.com 1.10,2013-05-04 22:36:00,
2013-05-04 16:51:00,79.3,2.0,29.66,SE,136,0.0,8.0,5,0.00,,,0.00,weatherlink.com 1.10,2013-05-04 22:51:00,
2013-05-04 17:06:00,79.4,3.0,29.66,SE,143,4.0,9.0,5,0.00,,,0.00,weatherlink.com 1.10,2013-05-04 23:06:00,
2013-05-04 17:21:00,78.8,6.0,29.66,SW,235,3.0,11.0,6,0.00,,,0.00,weatherlink.com 1.10,2013-05-04 23:21:00,
2013-05-04 17:37:00,79.0,6.0,29.66,ESE,105,1.0,6.0,6,0.00,,,0.00,weatherlink.com 1.10,2013-05-04 23:37:00,
2013-05-04 17:51:00,78.9,2.0,29.65,West,281,1.0,9.0,5,0.00,,,0.00,weatherlink.com 1.10,2013-05-04 23:51:00,
2013-05-04 18:06:00,78.3,2.0,29.65,East,97,7.0,7.0,5,0.00,,,0.00,weatherlink.com 1.10,2013-05-05 00:06:00,
2013-05-04 18:21:00,77.7,1.0,29.64,ESE,115,2.0,6.0,5,0.00,,,0.00,weatherlink.com 1.10,2013-05-05 00:21:00,
2013-05-04 18:36:00,77.3,5.0,29.64,ESE,123,3.0,12.0,6,0.00,,,0.00,weatherlink.com 1.10,2013-05-05 00:36:00,
2013-05-04 18:51:00,74.8,6.0,29.65,East,93,2.0,17.0,7,0.00,,,0.00,weatherlink.com 1.10,2013-05-05 00:51:00,
2013-05-04 19:06:00,73.3,5.0,29.65,ESE,122,10.0,16.0,7,0.00,,,0.00,weatherlink.com 1.10,2013-05-05 01:06:00,
2013-05-04 19:21:00,72.0,4.0,29.66,ESE,110,14.0,16.0,7,0.00,,,0.00,weatherlink.com 1.10,2013-05-05 01:21:00,
2013-05-04 19:36:00,70.8,6.0,29.67,SE,126,10.0,16.0,8,0.00,,,0.00,weatherlink.com 1.10,2013-05-05 01:36:00,
2013-05-04 19:51:00,70.0,8.0,29.67,SE,128,7.0,16.0,9,0.00,,,0.00,weatherlink.com 1.10,2013-05-05 01:51:00,
2013-05-04 20:06:00,69.2,8.0,29.68,East,96,7.0,16.0,9,0.00,,,0.00,weatherlink.com 1.10,2013-05-05 02:06:00,
2013-05-04 20:21:00,68.5,5.0,29.69,ESE,105,7.0,17.0,8,0.00,,,0.00,weatherlink.com 1.10,2013-05-05 02:21:00,
2013-05-04 20:36:00,67.8,7.0,29.70,ESE,105,8.0,19.0,9,0.00,,,0.00,weatherlink.com 1.10,2013-05-05 02:36:00,
2013-05-04 20:51:00,67.3,6.0,29.71,ENE,73,4.0,20.0,9,0.00,,,0.00,weatherlink.com 1.10,2013-05-05 02:51:00,
2013-05-04 21:06:00,66.7,6.0,29.71,SE,129,9.0,18.0,9,0.00,,,0.00,weatherlink.com 1.10,2013-05-05 03:06:00,
2013-05-04 21:21:00,66.2,5.0,29.73,ESE,115,13.0,22.0,9,0.00,,,0.00,weatherlink.com 1.10,2013-05-05 03:21:00,
2013-05-04 21:36:00,65.8,5.0,29.73,ESE,108,8.0,18.0,9,0.00,,,0.00,weatherlink.com 1.10,2013-05-05 03:36:00,
2013-05-04 21:51:00,65.3,5.0,29.74,ESE,113,6.0,17.0,9,0.00,,,0.00,weatherlink.com 1.10,2013-05-05 03:51:00,
2013-05-04 22:06:00,64.7,4.0,29.75,SSE,157,6.0,18.0,9,0.00,,,0.00,weatherlink.com 1.10,2013-05-05 04:06:00,
2013-05-04 22:21:00,64.2,6.0,29.75,SE,143,7.0,22.0,10,0.00,,,0.00,weatherlink.com 1.10,2013-05-05 04:21:00,
2013-05-04 22:36:00,63.7,6.0,29.76,SE,137,5.0,14.0,10,0.00,,,0.00,weatherlink.com 1.10,2013-05-05 04:36:00,
2013-05-04 22:51:00,63.5,6.0,29.76,SE,136,10.0,23.0,10,0.00,,,0.00,weatherlink.com 1.10,2013-05-05 04:51:00,
2013-05-04 23:06:00,63.3,6.0,29.75,East,80,11.0,21.0,10,0.00,,,0.00,weatherlink.com 1.10,2013-05-05 05:06:00,
2013-05-04 23:21:00,62.5,5.0,29.76,ESE,108,16.0,20.0,10,0.00,,,0.00,weatherlink.com 1.10,2013-05-05 05:21:00,
2013-05-04 23:36:00,62.1,7.0,29.76,ENE,68,10.0,22.0,11,0.00,,,0.00,weatherlink.com 1.10,2013-05-05 05:36:00,
2013-05-04 23:51:00,61.9,7.0,29.77,SE,124,9.0,23.0,11,0.00,,,0.00,weatherlink.com 1.10,2013-05-05 05:51:00,